Retour au catalogue

BEIDOU 3M12

ActifNavigationMEO
NORAD 43603·PAYLOAD·🇨🇳 China

Lancé Aug 24, 2018 depuis Xichang Satellite Launch Center

Loading…

Prochains Passages (prochaines 24 heures)

TLE

FraisSource: CelesTrak SupGP

Époque: Sep 12, 2026, 00:00 UTC

1 43603C 18067B   26255.00000000  .00000000  00000+0  00000+0 0  2551
2 43603  54.1753 178.0620 0005433  27.1662 311.6624  1.86227223    13

Suivez BEIDOU 3M12 en temps réel avec AllMySat

Download on the App Store